FW3304 Weather Reports


Display with metric or nautical units.
time (UTC)temp
F
wind
direction
speed
MPH
gust
MPH
rain 1hr
in
rain 24hr
in
rain mn
in
humidity
%
barometer
mb
20260503004558 53 8 2.0 6.0 0.00 0.00 0.00 71 1018.7
20260503003101 53 32 2.0 5.0 0.00 0.00 0.00 70 1018.5
20260503003015 53 32 3.0 13.0 0.00 0.00 0.00 70 1019.6
20260503001600 54 30 3.0 8.0 0.00 0.00 0.00 69 1018.3
20260503000042 55 19 3.0 7.0 0.00 0.00 0.00 68 1018.2
20260503000035 55 12 4.0 15.0 0.00 0.00 0.00 68 1019.3
20260502234541 55 4 4.0 12.0 0.00 0.00 0.00 66 1018.0
20260502233040 56 359 6.0 13.0 0.00 0.00 0.00 66 1018.0
20260502233015 56 8 5.0 17.0 0.00 0.00 0.00 66 1019.1
20260502231539 56 58 4.0 14.0 0.00 0.00 0.00 67 1018.0
20260502230038 56 23 5.0 13.0 0.00 0.00 0.00 67 1017.9
20260502230015 56 17 7.0 18.0 0.00 0.00 0.00 67 1019.1
20260502224537 57 47 8.0 16.0 0.00 0.00 0.00 65 1017.7
20260502223036 57 32 7.0 16.0 0.00 0.00 0.00 64 1017.6
20260502223019 57 3 8.0 21.0 0.00 0.00 0.00 64 1018.9
20260502221535 58 341 8.0 17.0 0.00 0.00 0.00 63 1017.3
20260502220036 58 14 7.0 17.0 0.00 0.00 0.00 62 1017.1
20260502214532 59 326 8.0 20.0 0.00 0.00 0.00 62 1016.9
20260502213038 58 8 9.0 16.0 0.00 0.00 0.00 65 1016.8
20260502213017 58 14 8.0 23.0 0.00 0.00 0.00 65 1018.1
20260502211532 59 342 6.0 18.0 0.00 0.00 0.00 68 1016.6
20260502210029 61 360 7.0 20.0 0.00 0.00 0.00 66 1016.2
20260502210015 61 2 9.0 21.0 0.00 0.00 0.00 67 1017.6
20260502204534 61 360 8.0 18.0 0.00 0.00 0.00 60 1015.9
20260502203036 64 312 9.0 16.0 0.00 0.00 0.00 53 1015.7
20260502203017 64 306 8.0 19.0 0.00 0.00 0.00 53 1017.0
20260502201526 65 295 8.0 18.0 0.00 0.00 0.00 41 1015.2
20260502200037 63 253 6.0 17.0 0.00 0.00 0.00 52 1016.9
20260502194520 63 248 5.0 10.0 0.00 0.00 0.00 52 1015.6
20260502193022 62 259 7.0 15.0 0.00 0.00 0.00 51 1015.7
20260502193017 63 286 5.0 16.0 0.00 0.00 0.00 51 1017.0
20260502191516 63 287 4.0 12.0 0.00 0.00 0.00 54 1015.5
20260502190021 62 268 5.0 16.0 0.00 0.00 0.00 52 1017.0
20260502190014 62 318 5.0 14.0 0.00 0.00 0.00 52 1015.7
20260502184514 63 211 4.0 12.0 0.00 0.00 0.00 49 1015.7
20260502183017 64 265 4.0 15.0 0.00 0.00 0.00 47 1017.3
20260502183008 64 225 2.0 8.0 0.00 0.00 0.00 48 1015.8
20260502181516 63 270 4.0 11.0 0.00 0.00 0.00 52 1016.2
20260502163055 62 190 5.0 10.0 0.00 0.00 0.00 50 1017.4
20260502163016 62 220 2.0 12.0 0.00 0.00 0.00 52 1018.8
20260502161553 61 215 3.0 6.0 0.00 0.00 0.00 55 1017.4
20260502160103 60 210 1.0 5.0 0.00 0.00 0.00 51 1017.5
20260502151549 59 129 2.0 5.0 0.00 0.00 0.00 58 1017.6
20260502150106 59 148 3.0 7.0 0.00 0.00 0.00 58 1017.7
20260502123016 45 0.0 1.0 0.00 0.00 0.00 95 1018.7
20260502123007 45 8 0.0 0.0 0.00 0.00 0.00 95 1017.4
20260502121505 44 20 0.0 0.0 0.00 0.00 0.00 95 1017.3
20260502114627 40 20 0.0 1.0 0.00 0.00 0.00 94 1017.0
20260502113115 40 20 0.0 0.0 0.00 0.00 0.00 94 1016.6
20260502113016 39 0.0 0.0 0.00 0.00 0.00 94 1017.6
20260502111604 39 20 0.0 0.0 0.00 0.00 0.00 93 1016.6
20260502110103 39 20 0.0 0.0 0.00 0.00 0.00 93 1016.5
20260502110036 39 0.0 0.0 0.00 0.00 0.00 93 1017.8
20260502104553 40 20 0.0 0.0 0.00 0.00 0.00 93 1016.5
20260502103111 40 20 0.0 0.0 0.00 0.00 0.00 92 1016.4
20260502103036 40 0.0 0.0 0.00 0.00 0.00 92 1017.7
20260502101556 40 20 0.0 0.0 0.00 0.00 0.00 92 1016.4
20260502071534 43 20 0.0 0.0 0.00 0.00 0.00 90 1016.5
20260502070029 43 20 0.0 0.0 0.00 0.00 0.00 90 1016.7
20260502070015 43 0.0 0.0 0.00 0.00 0.00 90 1018.1
20260502064531 43 20 0.0 0.0 0.00 0.00 0.00 90 1016.8
20260502063026 43 20 0.0 0.0 0.00 0.00 0.00 88 1017.0
20260502063017 43 0.0 0.0 0.00 0.00 0.00 88 1018.4
20260502061525 43 20 0.0 0.0 0.00 0.00 0.00 87 1017.2
20260502060036 44 0.0 0.0 0.00 0.00 0.00 87 1018.5
20260502060022 44 20 0.0 0.0 0.00 0.00 0.00 86 1017.1
20260502054519 44 20 0.0 0.0 0.00 0.00 0.00 86 1017.0
20260502053018 44 20 0.0 0.0 0.00 0.00 0.00 85 1016.7
20260502053015 44 0.0 0.0 0.00 0.00 0.00 85 1018.1
20260502051519 45 20 0.0 0.0 0.00 0.00 0.00 84 1016.7
20260502050040 45 0.0 0.0 0.00 0.00 0.00 83 1018.1
20260502050014 45 20 0.0 0.0 0.00 0.00 0.00 83 1016.8
20260502044515 46 20 0.0 0.0 0.00 0.00 0.00 82 1016.7
20260502043018 46 20 0.0 0.0 0.00 0.00 0.00 81 1016.8
20260502043016 46 0.0 0.0 0.00 0.00 0.00 81 1018.1
20260502041513 46 20 0.0 0.0 0.00 0.00 0.00 81 1017.0
20260502040015 47 0.0 0.0 0.00 0.00 0.00 80 1018.6
20260502040012 47 20 0.0 0.0 0.00 0.00 0.00 80 1017.3
20260502034516 48 20 0.0 0.0 0.00 0.00 0.00 79 1017.3
20260502033015 49 0.0 0.0 0.00 0.00 0.00 77 1019.1
20260502033011 49 20 0.0 0.0 0.00 0.00 0.00 77 1017.5
20260502031511 50 20 0.0 0.0 0.00 0.00 0.00 74 1017.6
20260502030015 51 0.0 0.0 0.00 0.00 0.00 72 1019.2
20260502030012 51 20 0.0 0.0 0.00 0.00 0.00 72 1017.8
20260502024511 52 20 0.0 0.0 0.00 0.00 0.00 67 1017.7
20260502023015 53 0.0 3.0 0.00 0.00 0.00 64 1019.1
20260502023010 53 20 0.0 0.0 0.00 0.00 0.00 64 1017.8
20260502021508 53 20 0.0 0.0 0.00 0.00 0.00 64 1017.6
20260502020055 54 26 0.0 4.0 0.00 0.00 0.00 62 1018.5
20260502020007 54 20 0.0 1.0 0.00 0.00 0.00 62 1017.3
20260502014506 54 20 0.0 3.0 0.00 0.00 0.00 61 1017.2
20260502013020 54 38 0.0 4.0 0.00 0.00 0.00 61 1018.2
20260502013006 54 30 0.0 3.0 0.00 0.00 0.00 61 1017.0
20260502011506 55 34 0.0 3.0 0.00 0.00 0.00 60 1016.7
20260502010035 56 33 0.0 11.0 0.00 0.00 0.00 58 1017.9
20260502010005 56 27 0.0 3.0 0.00 0.00 0.00 58 1016.4